Time,TemperatureF,DewpointF,PressureIn,WindDirection,WindDirectionDegrees,WindSpeedMPH,WindSpeedGustMPH,Humidity,HourlyPrecipIn,Conditions,Clouds,dailyrainin,SoftwareType,DateUTC
2013-03-06 00:02:00,39.4,30.0,29.80,SSE,156,0.0,4.0,70,0.00,,,0.00,weatherlink.com 1.10,2013-03-06 05:02:00,
2013-03-06 00:17:00,39.2,31.0,29.80,South,171,0.0,3.0,71,0.00,,,0.00,weatherlink.com 1.10,2013-03-06 05:17:00,
2013-03-06 00:32:00,38.5,32.0,29.79,SSE,161,0.0,6.0,76,0.00,,,0.00,weatherlink.com 1.10,2013-03-06 05:32:00,
2013-03-06 00:48:00,37.4,32.0,29.78,SSE,167,0.0,2.0,80,0.00,,,0.00,weatherlink.com 1.10,2013-03-06 05:48:00,
2013-03-06 01:03:00,36.6,32.0,29.78,SE,144,0.0,2.0,83,0.00,,,0.00,weatherlink.com 1.10,2013-03-06 06:03:00,
2013-03-06 01:33:00,34.7,32.0,29.77,SE,143,0.0,1.0,88,0.00,,,0.00,weatherlink.com 1.10,2013-03-06 06:33:00,
2013-03-06 01:48:00,34.3,31.0,29.75,SE,142,0.0,0.0,89,0.00,,,0.00,weatherlink.com 1.10,2013-03-06 06:48:00,
2013-03-06 02:03:00,33.8,31.0,29.73,SE,143,0.0,1.0,90,0.00,,,0.00,weatherlink.com 1.10,2013-03-06 07:03:00,
2013-03-06 02:18:00,33.5,31.0,29.72,SE,143,0.0,0.0,91,0.00,,,0.00,weatherlink.com 1.10,2013-03-06 07:18:00,
2013-03-06 02:33:00,33.3,31.0,29.71,SE,144,0.0,1.0,91,0.00,,,0.00,weatherlink.com 1.10,2013-03-06 07:33:00,
2013-03-06 02:48:00,33.2,31.0,29.71,SE,144,0.0,0.0,92,0.00,,,0.00,weatherlink.com 1.10,2013-03-06 07:48:00,
2013-03-06 03:03:00,33.2,31.0,29.71,SE,144,0.0,0.0,92,0.00,,,0.00,weatherlink.com 1.10,2013-03-06 08:03:00,
2013-03-06 03:18:00,33.1,31.0,29.71,SE,144,0.0,0.0,93,0.00,,,0.00,weatherlink.com 1.10,2013-03-06 08:18:00,
2013-03-06 03:33:00,33.1,31.0,29.71,SE,144,0.0,0.0,93,0.00,,,0.00,weatherlink.com 1.10,2013-03-06 08:33:00,
2013-03-06 03:48:00,33.1,31.0,29.70,SSE,157,0.0,0.0,93,0.00,,,0.00,weatherlink.com 1.10,2013-03-06 08:48:00,
2013-03-06 04:03:00,33.1,31.0,29.69,SSE,157,0.0,0.0,93,0.00,,,0.00,weatherlink.com 1.10,2013-03-06 09:03:00,
2013-03-06 04:18:00,33.0,32.0,29.68,SSE,155,0.0,0.0,94,0.01,,,0.01,weatherlink.com 1.10,2013-03-06 09:18:00,
2013-03-06 04:33:00,33.0,31.0,29.68,South,170,0.0,0.0,93,0.01,,,0.01,weatherlink.com 1.10,2013-03-06 09:33:00,
2013-03-06 04:48:00,33.0,32.0,29.67,SSW,203,0.0,0.0,94,0.01,,,0.01,weatherlink.com 1.10,2013-03-06 09:48:00,
2013-03-06 05:03:00,33.0,32.0,29.67,SSW,203,0.0,0.0,94,0.01,,,0.01,weatherlink.com 1.10,2013-03-06 10:03:00,
2013-03-06 05:18:00,33.0,32.0,29.68,SSW,203,0.0,0.0,94,0.00,,,0.01,weatherlink.com 1.10,2013-03-06 10:18:00,
2013-03-06 05:33:00,33.0,32.0,29.68,SSW,203,0.0,0.0,94,0.00,,,0.01,weatherlink.com 1.10,2013-03-06 10:33:00,
2013-03-06 05:48:00,33.0,32.0,29.68,SSW,203,0.0,0.0,94,0.00,,,0.01,weatherlink.com 1.10,2013-03-06 10:48:00,
2013-03-06 06:03:00,33.0,32.0,29.68,SSW,203,0.0,0.0,95,0.00,,,0.01,weatherlink.com 1.10,2013-03-06 11:03:00,
2013-03-06 06:18:00,33.1,32.0,29.68,SSW,204,0.0,0.0,95,0.00,,,0.01,weatherlink.com 1.10,2013-03-06 11:18:00,
2013-03-06 06:33:00,33.1,32.0,29.68,SSW,204,0.0,0.0,95,0.00,,,0.01,weatherlink.com 1.10,2013-03-06 11:33:00,
2013-03-06 06:48:00,33.0,32.0,29.67,SSW,204,0.0,0.0,95,0.00,,,0.01,weatherlink.com 1.10,2013-03-06 11:48:00,
2013-03-06 07:03:00,33.0,32.0,29.66,SSW,205,0.0,0.0,95,0.00,,,0.01,weatherlink.com 1.10,2013-03-06 12:03:00,
2013-03-06 07:18:00,33.0,32.0,29.67,SSW,205,0.0,1.0,95,0.00,,,0.01,weatherlink.com 1.10,2013-03-06 12:18:00,
2013-03-06 07:33:00,33.0,32.0,29.67,SSW,205,0.0,0.0,95,0.00,,,0.01,weatherlink.com 1.10,2013-03-06 12:33:00,
2013-03-06 07:48:00,33.2,32.0,29.68,SSW,206,0.0,1.0,95,0.00,,,0.01,weatherlink.com 1.10,2013-03-06 12:48:00,
2013-03-06 08:03:00,33.3,32.0,29.68,SSW,207,0.0,0.0,95,0.00,,,0.01,weatherlink.com 1.10,2013-03-06 13:03:00,
2013-03-06 08:18:00,33.3,32.0,29.68,SSW,206,0.0,0.0,95,0.00,,,0.01,weatherlink.com 1.10,2013-03-06 13:18:00,
2013-03-06 08:33:00,33.3,32.0,29.69,SSW,206,0.0,0.0,95,0.01,,,0.02,weatherlink.com 1.10,2013-03-06 13:33:00,
2013-03-06 08:48:00,33.4,32.0,29.69,SSW,212,0.0,1.0,95,0.01,,,0.02,weatherlink.com 1.10,2013-03-06 13:48:00,
2013-03-06 09:03:00,33.6,32.0,29.69,WSW,237,0.0,0.0,95,0.01,,,0.02,weatherlink.com 1.10,2013-03-06 14:03:00,
2013-03-06 09:18:00,33.6,32.0,29.70,South,177,0.0,3.0,95,0.01,,,0.02,weatherlink.com 1.10,2013-03-06 14:18:00,
2013-03-06 09:33:00,33.7,33.0,29.69,SE,134,3.0,3.0,95,0.01,,,0.03,weatherlink.com 1.10,2013-03-06 14:33:00,
2013-03-06 09:48:00,33.8,33.0,29.69,WSW,253,0.0,3.0,95,0.03,,,0.05,weatherlink.com 1.10,2013-03-06 14:48:00,
2013-03-06 10:03:00,34.1,33.0,29.69,SSW,209,1.0,3.0,96,0.04,,,0.06,weatherlink.com 1.10,2013-03-06 15:03:00,
2013-03-06 10:18:00,34.4,33.0,29.70,NW,321,0.0,5.0,95,0.05,,,0.07,weatherlink.com 1.10,2013-03-06 15:18:00,
2013-03-06 10:33:00,34.4,33.0,29.70,SSW,211,2.0,4.0,95,0.06,,,0.09,weatherlink.com 1.10,2013-03-06 15:33:00,
2013-03-06 10:48:00,34.4,33.0,29.70,SSW,206,0.0,3.0,95,0.06,,,0.11,weatherlink.com 1.10,2013-03-06 15:48:00,
2013-03-06 11:03:00,34.4,33.0,29.71,NW,312,0.0,4.0,95,0.07,,,0.13,weatherlink.com 1.10,2013-03-06 16:03:00,
2013-03-06 11:18:00,34.4,33.0,29.72,SE,140,0.0,4.0,95,0.07,,,0.14,weatherlink.com 1.10,2013-03-06 16:18:00,
2013-03-06 11:34:00,34.4,33.0,29.72,NW,317,0.0,2.0,95,0.08,,,0.17,weatherlink.com 1.10,2013-03-06 16:34:00,
2013-03-06 11:48:00,34.4,33.0,29.72,ESE,121,0.0,3.0,95,0.08,,,0.19,weatherlink.com 1.10,2013-03-06 16:48:00,
2013-03-06 12:03:00,35.0,34.0,29.73,WSW,237,1.0,3.0,96,0.08,,,0.21,weatherlink.com 1.10,2013-03-06 17:03:00,
2013-03-06 12:18:00,35.3,34.0,29.74,SE,146,0.0,4.0,96,0.08,,,0.23,weatherlink.com 1.10,2013-03-06 17:18:00,
2013-03-06 12:33:00,35.4,34.0,29.73,WNW,299,1.0,6.0,95,0.08,,,0.25,weatherlink.com 1.10,2013-03-06 17:33:00,
2013-03-06 12:48:00,35.4,34.0,29.74,ESE,117,2.0,4.0,95,0.08,,,0.27,weatherlink.com 1.10,2013-03-06 17:48:00,
2013-03-06 13:04:00,35.5,34.0,29.74,SSW,192,0.0,3.0,95,0.08,,,0.29,weatherlink.com 1.10,2013-03-06 18:04:00,
2013-03-06 13:34:00,35.7,34.0,29.74,NE,49,1.0,6.0,95,0.07,,,0.32,weatherlink.com 1.10,2013-03-06 18:34:00,
2013-03-06 13:49:00,36.0,35.0,29.75,NE,47,3.0,4.0,95,0.07,,,0.34,weatherlink.com 1.10,2013-03-06 18:49:00,
2013-03-06 14:04:00,36.1,35.0,29.76,NNE,15,0.0,5.0,95,0.06,,,0.35,weatherlink.com 1.10,2013-03-06 19:04:00,
2013-03-06 14:19:00,36.2,35.0,29.77,ENE,63,0.0,4.0,95,0.07,,,0.37,weatherlink.com 1.10,2013-03-06 19:19:00,
2013-03-06 14:49:00,36.3,35.0,29.80,NNE,13,0.0,3.0,95,0.07,,,0.41,weatherlink.com 1.10,2013-03-06 19:49:00,
2013-03-06 15:04:00,36.2,35.0,29.81,SW,232,1.0,4.0,95,0.08,,,0.43,weatherlink.com 1.10,2013-03-06 20:04:00,
2013-03-06 15:19:00,36.1,35.0,29.82,WNW,287,0.0,6.0,95,0.08,,,0.45,weatherlink.com 1.10,2013-03-06 20:19:00,
2013-03-06 15:34:00,36.1,35.0,29.83,West,281,0.0,3.0,95,0.07,,,0.46,weatherlink.com 1.10,2013-03-06 20:34:00,
2013-03-06 15:49:00,36.2,35.0,29.84,NW,309,1.0,2.0,95,0.07,,,0.48,weatherlink.com 1.10,2013-03-06 20:49:00,
2013-03-06 16:04:00,36.4,35.0,29.84,NW,317,0.0,5.0,95,0.06,,,0.49,weatherlink.com 1.10,2013-03-06 21:04:00,
2013-03-06 16:19:00,36.4,35.0,29.86,North,355,0.0,4.0,95,0.05,,,0.50,weatherlink.com 1.10,2013-03-06 21:19:00,
2013-03-06 16:34:00,36.6,35.0,29.88,NW,321,1.0,2.0,95,0.05,,,0.51,weatherlink.com 1.10,2013-03-06 21:34:00,
2013-03-06 16:49:00,36.7,35.0,29.88,North,355,0.0,1.0,95,0.05,,,0.53,weatherlink.com 1.10,2013-03-06 21:49:00,
2013-03-06 17:04:00,36.8,36.0,29.88,NNW,348,0.0,1.0,95,0.04,,,0.53,weatherlink.com 1.10,2013-03-06 22:04:00,
2013-03-06 17:19:00,37.0,36.0,29.89,NNW,348,0.0,1.0,95,0.04,,,0.54,weatherlink.com 1.10,2013-03-06 22:19:00,
2013-03-06 17:34:00,37.0,36.0,29.89,NNW,348,0.0,0.0,95,0.04,,,0.55,weatherlink.com 1.10,2013-03-06 22:34:00,
2013-03-06 17:49:00,37.0,36.0,29.90,NNW,348,0.0,0.0,95,0.02,,,0.55,weatherlink.com 1.10,2013-03-06 22:49:00,
2013-03-06 18:04:00,37.0,36.0,29.91,NNW,348,0.0,0.0,95,0.02,,,0.55,weatherlink.com 1.10,2013-03-06 23:04:00,
2013-03-06 18:19:00,36.9,36.0,29.92,NNW,348,0.0,0.0,95,0.01,,,0.55,weatherlink.com 1.10,2013-03-06 23:19:00,
2013-03-06 18:34:00,36.8,36.0,29.93,NNW,348,0.0,0.0,95,0.01,,,0.56,weatherlink.com 1.10,2013-03-06 23:34:00,
2013-03-06 18:49:00,36.6,35.0,29.94,NNW,348,0.0,0.0,95,0.01,,,0.56,weatherlink.com 1.10,2013-03-06 23:49:00,
2013-03-06 19:04:00,36.5,35.0,29.94,NNW,348,0.0,0.0,95,0.01,,,0.56,weatherlink.com 1.10,2013-03-07 00:04:00,
2013-03-06 19:19:00,36.5,35.0,29.95,NNW,348,0.0,0.0,95,0.01,,,0.56,weatherlink.com 1.10,2013-03-07 00:19:00,
2013-03-06 19:34:00,36.4,35.0,29.95,NNW,348,0.0,0.0,95,0.00,,,0.56,weatherlink.com 1.10,2013-03-07 00:34:00,
2013-03-06 19:49:00,36.4,35.0,29.96,NNW,348,0.0,0.0,95,0.01,,,0.57,weatherlink.com 1.10,2013-03-07 00:49:00,
2013-03-06 20:04:00,36.4,35.0,29.96,NNW,348,0.0,0.0,95,0.01,,,0.57,weatherlink.com 1.10,2013-03-07 01:04:00,
2013-03-06 20:19:00,36.4,35.0,29.96,NNW,348,0.0,0.0,95,0.01,,,0.57,weatherlink.com 1.10,2013-03-07 01:19:00,
2013-03-06 20:34:00,36.3,35.0,29.96,NNW,348,0.0,0.0,95,0.01,,,0.57,weatherlink.com 1.10,2013-03-07 01:34:00,
2013-03-06 20:49:00,36.2,35.0,29.96,NNW,348,0.0,0.0,95,0.00,,,0.57,weatherlink.com 1.10,2013-03-07 01:49:00,
2013-03-06 21:04:00,36.2,35.0,29.96,NNW,348,0.0,1.0,95,0.00,,,0.57,weatherlink.com 1.10,2013-03-07 02:04:00,
2013-03-06 21:19:00,36.4,35.0,29.96,NW,320,0.0,1.0,94,0.00,,,0.57,weatherlink.com 1.10,2013-03-07 02:19:00,
2013-03-06 21:34:00,36.5,34.0,29.96,NW,317,0.0,3.0,91,0.00,,,0.57,weatherlink.com 1.10,2013-03-07 02:34:00,
2013-03-06 21:49:00,36.5,34.0,29.96,NW,313,0.0,1.0,90,0.00,,,0.57,weatherlink.com 1.10,2013-03-07 02:49:00,
2013-03-06 22:05:00,36.7,34.0,29.97,NW,311,0.0,1.0,88,0.00,,,0.57,weatherlink.com 1.10,2013-03-07 03:05:00,
2013-03-06 22:19:00,37.1,33.0,29.97,North,349,4.0,4.0,86,0.00,,,0.57,weatherlink.com 1.10,2013-03-07 03:19:00,
2013-03-06 22:34:00,37.6,33.0,29.98,North,355,0.0,1.0,84,0.01,,,0.58,weatherlink.com 1.10,2013-03-07 03:34:00,
2013-03-06 22:49:00,37.8,33.0,29.98,NNW,348,0.0,1.0,82,0.01,,,0.58,weatherlink.com 1.10,2013-03-07 03:49:00,
2013-03-06 23:04:00,37.7,33.0,29.99,North,349,0.0,1.0,83,0.01,,,0.58,weatherlink.com 1.10,2013-03-07 04:04:00,
2013-03-06 23:19:00,37.2,33.0,29.99,North,349,0.0,0.0,83,0.00,,,0.58,weatherlink.com 1.10,2013-03-07 04:19:00,
2013-03-06 23:34:00,36.9,32.0,29.99,NNW,346,0.0,1.0,83,0.00,,,0.58,weatherlink.com 1.10,2013-03-07 04:34:00,
2013-03-06 23:49:00,36.8,32.0,29.99,NNW,346,0.0,0.0,83,0.00,,,0.58,weatherlink.com 1.10,2013-03-07 04:49:00,